TimeMDT,TemperatureF,Dew PointF,Humidity,Sea Level PressureIn,VisibilityMPH,Wind Direction,Wind SpeedMPH,Gust SpeedMPH,PrecipitationIn,Events,Conditions,WindDirDegrees,DateUTC
12:53 AM,42.1,35.1,76,30.21,10.0,SSE,4.6,-,N/A,,Clear,160,2013-06-05 06:53:00
1:53 AM,37.9,35.1,89,30.20,10.0,ESE,4.6,-,N/A,,Clear,120,2013-06-05 07:53:00
2:53 AM,36.0,33.1,89,30.20,10.0,SE,3.5,-,N/A,,Clear,130,2013-06-05 08:53:00
3:53 AM,35.1,32.0,89,30.19,10.0,SE,4.6,-,N/A,,Clear,130,2013-06-05 09:53:00
4:53 AM,34.0,30.9,89,30.19,10.0,East,3.5,-,N/A,,Clear,100,2013-06-05 10:53:00
5:53 AM,32.0,30.0,92,30.19,10.0,SE,4.6,-,N/A,,Clear,130,2013-06-05 11:53:00
6:53 AM,34.0,32.0,92,30.18,10.0,ESE,3.5,-,N/A,,Clear,110,2013-06-05 12:53:00
7:53 AM,39.9,35.1,83,30.16,10.0,Calm,Calm,-,N/A,,Clear,0,2013-06-05 13:53:00
8:53 AM,46.9,35.1,63,30.14,10.0,Calm,Calm,-,N/A,,Clear,0,2013-06-05 14:53:00
9:53 AM,53.1,35.1,50,30.12,10.0,North,3.5,-,N/A,,Clear,350,2013-06-05 15:53:00
10:53 AM,57.9,35.1,42,30.11,10.0,Calm,Calm,-,N/A,,Clear,0,2013-06-05 16:53:00
11:53 AM,62.1,34.0,35,30.09,10.0,Calm,Calm,-,N/A,,Clear,0,2013-06-05 17:53:00
12:53 PM,63.0,35.1,35,30.07,10.0,WNW,5.8,-,N/A,,Clear,290,2013-06-05 18:53:00
1:53 PM,66.0,34.0,30,30.06,10.0,East,6.9,-,N/A,,Clear,80,2013-06-05 19:53:00
2:53 PM,66.9,33.1,28,30.05,10.0,Calm,Calm,-,N/A,,Clear,0,2013-06-05 20:53:00
3:53 PM,72.0,36.0,27,30.02,10.0,NW,12.7,17.3,N/A,,Clear,320,2013-06-05 21:53:00
4:53 PM,69.1,36.0,30,30.02,10.0,West,4.6,-,N/A,,Clear,280,2013-06-05 22:53:00
5:53 PM,70.0,35.1,28,30.02,10.0,NNW,9.2,-,N/A,,Clear,330,2013-06-05 23:53:00
6:53 PM,70.0,35.1,28,30.01,10.0,WNW,9.2,-,N/A,,Clear,300,2013-06-06 00:53:00
7:53 PM,69.1,35.1,29,29.98,10.0,NNW,10.4,-,N/A,,Clear,340,2013-06-06 01:53:00
8:53 PM,64.9,36.0,34,29.98,10.0,WNW,4.6,-,N/A,,Clear,290,2013-06-06 02:53:00
9:53 PM,57.0,43.0,59,30.00,10.0,SE,5.8,-,N/A,,Clear,130,2013-06-06 03:53:00
10:53 PM,53.1,42.1,66,30.01,10.0,ESE,6.9,-,N/A,,Clear,120,2013-06-06 04:53:00
11:53 PM,51.1,41.0,68,30.01,10.0,SE,4.6,-,N/A,,Clear,130,2013-06-06 05:53:00